Stündliche Wetter Aberdeen

Heute, 17 Juni, Donnerstag

Zeit Temperatur Niederschläge Wind Luftdruck Luftfeuchtigkeit
00:00 +10°C° 0 mm 1 m/S 749 mmHg 91%
01:00 +10°C° 0 mm 1 m/S 749 mmHg 92%
02:00 +10°C° 0 mm 1 m/S 749 mmHg 92%
03:00 +9°C° 0 mm 1 m/S 749 mmHg 92%
04:00 +10°C° 0 mm 1 m/S 749 mmHg 91%
05:00 +10°C° 0 mm 2 m/S 749 mmHg 90%
06:00 +12°C° 0 mm 2 m/S 749 mmHg 89%
07:00 +13°C° 0 mm 2 m/S 750 mmHg 82%
08:00 +14°C° 0 mm 3 m/S 750 mmHg 75%
09:00 +16°C° 0 mm 3 m/S 750 mmHg 68%
10:00 +17°C° 0 mm 3 m/S 750 mmHg 65%
11:00 +17°C° 0 mm 3 m/S 750 mmHg 61%
12:00 +18°C° 0 mm 3 m/S 750 mmHg 58%
13:00 +18°C° 0 mm 4 m/S 750 mmHg 58%
14:00 +18°C° 0 mm 4 m/S 751 mmHg 58%
15:00 +18°C° 0 mm 4 m/S 751 mmHg 59%
16:00 +18°C° 0 mm 4 m/S 751 mmHg 61%
17:00 +17°C° 0 mm 4 m/S 751 mmHg 64%
18:00 +17°C° 0 mm 4 m/S 751 mmHg 67%
19:00 +14°C° 0 mm 4 m/S 752 mmHg 71%
20:00 +12°C° 0 mm 3 m/S 752 mmHg 75%
21:00 +10°C° 0 mm 3 m/S 753 mmHg 79%
22:00 +10°C° 0 mm 3 m/S 753 mmHg 81%
23:00 +9°C° 0 mm 2 m/S 753 mmHg 84%

Morgen, 18 Juni, Freitag

Zeit Temperatur Niederschläge Wind Luftdruck Luftfeuchtigkeit
00:00 +8°C° 0 mm 2 m/S 753 mmHg 86%
01:00 +8°C° 0 mm 2 m/S 754 mmHg 87%
02:00 +8°C° 0 mm 2 m/S 754 mmHg 88%
03:00 +7°C° 0 mm 2 m/S 755 mmHg 88%
04:00 +9°C° 0 mm 1 m/S 755 mmHg 87%
05:00 +10°C° 0 mm 1 m/S 755 mmHg 85%
06:00 +10°C° 0 mm 1 m/S 755 mmHg 83%
07:00 +11°C° 0 mm 1 m/S 756 mmHg 83%
08:00 +11°C° 0 mm 1 m/S 756 mmHg 82%
09:00 +11°C° 0 mm 1 m/S 756 mmHg 82%
10:00 +12°C° 0 mm 2 m/S 756 mmHg 80%
11:00 +13°C° 0 mm 2 m/S 757 mmHg 77%
12:00 +14°C° 0 mm 2 m/S 757 mmHg 75%
13:00 +13°C° 0.1 mm 3 m/S 757 mmHg 76%
14:00 +12°C° 0.1 mm 4 m/S 757 mmHg 77%
15:00 +12°C° 0.1 mm 4 m/S 757 mmHg 78%
16:00 +12°C° 0.1 mm 4 m/S 757 mmHg 78%
17:00 +12°C° 0.1 mm 4 m/S 757 mmHg 79%
18:00 +11°C° 0.1 mm 4 m/S 757 mmHg 79%
19:00 +10°C° 0 mm 3 m/S 757 mmHg 83%
20:00 +9°C° 0 mm 2 m/S 757 mmHg 88%
21:00 +8°C° 0 mm 2 m/S 757 mmHg 92%
22:00 +8°C° 0 mm 2 m/S 757 mmHg 92%
23:00 +7°C° 0 mm 2 m/S 757 mmHg 93%

übermorgen, 19 Juni, Samstag

Zeit Temperatur Niederschläge Wind Luftdruck Luftfeuchtigkeit
00:00 +7°C° 0 mm 2 m/S 757 mmHg 93%
01:00 +7°C° 0 mm 2 m/S 756 mmHg 92%
02:00 +7°C° 0 mm 2 m/S 756 mmHg 92%
03:00 +8°C° 0 mm 1 m/S 756 mmHg 91%
04:00 +8°C° 0 mm 1 m/S 756 mmHg 90%
05:00 +9°C° 0 mm 1 m/S 756 mmHg 88%
06:00 +10°C° 0 mm 1 m/S 756 mmHg 87%
07:00 +11°C° 0 mm 1 m/S 755 mmHg 85%
08:00 +10°C° 0 mm 2 m/S 755 mmHg 83%
09:00 +12°C° 0 mm 2 m/S 755 mmHg 82%
10:00 +12°C° 0.1 mm 3 m/S 755 mmHg 80%
11:00 +12°C° 0.1 mm 3 m/S 755 mmHg 78%
12:00 +13°C° 0.1 mm 4 m/S 755 mmHg 77%
13:00 +13°C° 0.1 mm 4 m/S 754 mmHg 77%
14:00 +13°C° 0.1 mm 5 m/S 754 mmHg 78%
15:00 +13°C° 0.1 mm 5 m/S 754 mmHg 79%
16:00 +13°C° 0 mm 5 m/S 754 mmHg 82%
17:00 +12°C° 0 mm 5 m/S 754 mmHg 85%
18:00 +12°C° 0 mm 5 m/S 754 mmHg 88%
19:00 +10°C° 0 mm 5 m/S 754 mmHg 89%
20:00 +10°C° 0 mm 5 m/S 754 mmHg 91%
21:00 +11°C° 0 mm 4 m/S 754 mmHg 92%
22:00 +11°C° 0 mm 4 m/S 754 mmHg 92%
23:00 +11°C° 0 mm 4 m/S 754 mmHg 93%

20 Juni, Sonntag

Zeit Temperatur Niederschläge Wind Luftdruck Luftfeuchtigkeit
00:00 +11°C° 0 mm 4 m/S 754 mmHg 93%
01:00 +10°C° 0 mm 4 m/S 754 mmHg 94%
02:00 +10°C° 0 mm 3 m/S 754 mmHg 95%
03:00 +9°C° 0 mm 3 m/S 753 mmHg 95%
04:00 +10°C° 0 mm 3 m/S 753 mmHg 93%
05:00 +10°C° 0 mm 3 m/S 753 mmHg 90%
06:00 +10°C° 0 mm 3 m/S 753 mmHg 88%
07:00 +11°C° 0 mm 4 m/S 753 mmHg 81%
08:00 +12°C° 0 mm 5 m/S 752 mmHg 74%
09:00 +13°C° 0 mm 6 m/S 752 mmHg 67%
10:00 +13°C° 0 mm 6 m/S 752 mmHg 67%
11:00 +13°C° 0 mm 6 m/S 752 mmHg 67%
12:00 +13°C° 0 mm 6 m/S 751 mmHg 67%
13:00 +11°C° 0.2 mm 6 m/S 751 mmHg 73%
14:00 +10°C° 0.2 mm 6 m/S 751 mmHg 79%
15:00 +10°C° 0.2 mm 5 m/S 751 mmHg 85%
16:00 +9°C° 1.1 mm 6 m/S 751 mmHg 87%
17:00 +8°C° 1.1 mm 6 m/S 751 mmHg 90%
18:00 +8°C° 1.1 mm 6 m/S 751 mmHg 93%
19:00 +8°C° 0.2 mm 6 m/S 751 mmHg 92%
20:00 +8°C° 0.2 mm 6 m/S 751 mmHg 91%
21:00 +7°C° 0.2 mm 5 m/S 751 mmHg 90%
22:00 +8°C° 0 mm 6 m/S 751 mmHg 90%
23:00 +8°C° 0 mm 6 m/S 751 mmHg 90%

21 Juni, Montag

Zeit Temperatur Niederschläge Wind Luftdruck Luftfeuchtigkeit
00:00 +8°C° 0 mm 6 m/S 750 mmHg 90%
01:00 +8°C° 0 mm 6 m/S 750 mmHg 90%
02:00 +8°C° 0 mm 6 m/S 750 mmHg 89%
03:00 +8°C° 0 mm 6 m/S 750 mmHg 88%
04:00 +8°C° 0 mm 6 m/S 750 mmHg 87%
05:00 +8°C° 0 mm 6 m/S 750 mmHg 86%
06:00 +9°C° 0 mm 6 m/S 750 mmHg 85%
07:00 +9°C° 0 mm 5 m/S 750 mmHg 84%
08:00 +9°C° 0 mm 5 m/S 749 mmHg 83%
09:00 +10°C° 0 mm 5 m/S 749 mmHg 82%
10:00 +10°C° 0 mm 5 m/S 749 mmHg 81%
11:00 +10°C° 0 mm 5 m/S 749 mmHg 80%
12:00 +12°C° 0 mm 5 m/S 749 mmHg 80%
13:00 +11°C° 0.2 mm 4 m/S 749 mmHg 82%
14:00 +11°C° 0.2 mm 4 m/S 749 mmHg 85%
15:00 +11°C° 0.2 mm 3 m/S 749 mmHg 88%
16:00 +11°C° 0 mm 3 m/S 749 mmHg 88%
17:00 +11°C° 0 mm 3 m/S 749 mmHg 88%
18:00 +11°C° 0 mm 3 m/S 749 mmHg 87%
19:00 +12°C° 0 mm 2 m/S 749 mmHg 88%
20:00 +12°C° 0 mm 2 m/S 749 mmHg 88%
21:00 +10°C° 0 mm 2 m/S 749 mmHg 88%
22:00 +11°C° 0 mm 1 m/S 749 mmHg 88%
23:00 +11°C° 0 mm 1 m/S 749 mmHg 88%

22 Juni, Dienstag

Zeit Temperatur Niederschläge Wind Luftdruck Luftfeuchtigkeit
00:00 +11°C° 0 mm 1 m/S 749 mmHg 88%
01:00 +11°C° 0 mm 1 m/S 748 mmHg 88%
02:00 +11°C° 0 mm 1 m/S 748 mmHg 88%
03:00 +11°C° 0 mm 1 m/S 748 mmHg 88%
04:00 +11°C° 0 mm 1 m/S 748 mmHg 87%
05:00 +11°C° 0 mm 1 m/S 748 mmHg 87%
06:00 +12°C° 0 mm 1 m/S 748 mmHg 86%
07:00 +12°C° 0 mm 1 m/S 748 mmHg 85%
08:00 +13°C° 0 mm 1 m/S 747 mmHg 84%
09:00 +13°C° 0 mm 1 m/S 747 mmHg 83%
10:00 +13°C° 0.1 mm 2 m/S 747 mmHg 84%
11:00 +13°C° 0.1 mm 2 m/S 747 mmHg 84%
12:00 +14°C° 0.1 mm 2 m/S 747 mmHg 85%
13:00 +13°C° 1.3 mm 2 m/S 747 mmHg 88%
14:00 +13°C° 1.3 mm 2 m/S 747 mmHg 91%
15:00 +13°C° 1.3 mm 2 m/S 746 mmHg 95%
16:00 +12°C° 1.7 mm 2 m/S 746 mmHg 94%
17:00 +11°C° 1.7 mm 3 m/S 746 mmHg 94%
18:00 +11°C° 1.7 mm 3 m/S 746 mmHg 94%
19:00 +11°C° 0.9 mm 3 m/S 747 mmHg 93%
20:00 +10°C° 0.9 mm 3 m/S 747 mmHg 92%
21:00 +10°C° 0.9 mm 3 m/S 747 mmHg 91%
22:00 +10°C° 0.3 mm 3 m/S 747 mmHg 89%
23:00 +9°C° 0.3 mm 3 m/S 747 mmHg 88%
Mehr zeigen

Wir brauchen deine Erlaubnis

Meteoprog und unser Service Anbieter werden persönliche Daten aufbewahren, so wie Cookies, Geräte Bezeichnung oder ähnliche Technologien von deinem Gerät und Prozess, so wie Persönliche Daten Inhalte und Werbungen, genauso wie social Media und den Verkehr zu analysieren.

  • Aufbewahrung und/oder Zugang zu deiner Geräte Informationen.

    Cookies, Geräte Bezeichnung oder andere Informationen, können aufbewahrt oder Zugang zu deinem Gerät erhalten, für den Grund, der oben angegeben wird.

  • Personalisierte Werbung und Inhalte, Messungen, Einblick in das Publikum und Produkt Entwicklung.

    Werbungen und Inhalte können personalisiert werden, basierend auf ein Profil. Mehr Daten können besser personalisierte Werbungen und Inhalte hinzufügen. Werbung und Inhalte können gezeigt und gemessen werden. Einblicke über das Publikum, welche die Werbung gesehen haben und den Inhalt, können abgeleitet werden. So wie Daten können genutzt werden, um es zu verbessern oder die Benutzer Erfahrung zu verbessern das System und die Software.

Wenn du “Ich stimme zu” klickst, erlaubst du uns, die Cookies zu benutzen die Geräte Bezeichnung, den Web oder ähnliche Technologien zu benutzen. Deine Settings, können in deinem Gerät bei deinem Browser geändert werden.

Für den bestimmten Zweck, berechtigten Interessen beruhen darauf, mehr als auf den Inhalt. Du kannst mehr darüber in unseren Privaten und Cookie Politik lesen.